Regional Weather Roundup
Issued by NWS

Home | Current Version | Previous Version | Graphics & Text | Print | Product List | Glossary On
Versions: 1 2 3 4 5 6 7 8 9 10 11 12 13 14 15 16 17 18 19 20 21 22 23 24 25 26 27 28 29 30 31 32 33 34 35 36 37 38 39 40 41 42 43 44 45 46 47 48 49 50
000
ASUS43 KBIS 271420
RWRND

NORTH DAKOTA REGIONAL WEATHER ROUNDUP
NATIONAL WEATHER SERVICE BISMARCK ND
800 AM CST FRI FEB 27 2015

NOTE: "FAIR" INDICATES FEW OR NO CLOUDS BELOW 12,000 FEET WITH NO
SIGNIFICANT WEATHER AND/OR OBSTRUCTIONS TO VISIBILITY.


NDZ001>003-009>011-017-271500-
NORTHWEST NORTH DAKOTA

CITY           SKY/WX    TMP DP  RH WIND       PRES   REMARKS
WILLISTON      CLEAR    -13 -17  82 CALM      30.27F
MINOT          PTCLDY    -8 -14  74 SW10      30.32F WCI -26
MINOT AFB      PTCLDY   -12 -16  82 SW6       30.32F WCI -26
$$

NDZ018>021-031>035-040>046-271500-
SOUTHWEST NORTH DAKOTA

CITY           SKY/WX    TMP DP  RH WIND       PRES   REMARKS
BISMARCK       PTCLDY   -13 -18  78 E6        30.41F WCI -27
DICKINSON      PTCLDY    -4 -11  72 S9        30.22F WCI -20
GARRISON         N/A    -15 -19  82 CALM      30.33F
HETTINGER ARPT CLEAR     -5 -11  75 SE7       30.26F WCI -19
$$

NDZ004>008-012>016-024-026-027-054-271500-
NORTHEAST NORTH DAKOTA

CITY           SKY/WX    TMP DP  RH WIND       PRES   REMARKS
GRAND FORKS    CLEAR    -15 -20  78 SW6       30.44S WCI -29
GRND FRKS AFB  CLEAR     -7 -15  68 W8        30.44R WCI -23
DEVILS LAKE    PTCLDY   N/A N/A N/A MISG        N/A
$$

NDZ022-023-025-028>030-036>039-047>053-271500-
SOUTHEAST NORTH DAKOTA

CITY           SKY/WX    TMP DP  RH WIND       PRES   REMARKS
FARGO          FAIR      -9 -15  75 SW8       30.49S WCI -25
JAMESTOWN      PTCLDY    -9 -15  75 W3        30.42S
$$



USA.gov is the U.S. government's official web portal to all federal, state and local government web resources and services.